Regional Weather Roundup
Issued by NWS

Home | Current Version | Previous Version | Graphics & Text | Print | Product List | Glossary On
Versions: 1 2 3 4 5 6 7 8 9 10 11 12 13 14 15 16 17 18 19 20 21 22 23 24 25 26 27 28 29 30 31 32 33 34 35 36 37 38 39 40 41 42 43 44 45 46 47 48 49 50
000
ASUS45 KBOU 200807
RWRCO

WEATHER ROUNDUP FOR COLORADO
NATIONAL WEATHER SERVICE DENVER/BOULDER CO
200 AM MDT MON APR 20 2015

NOTE: "FAIR" INDICATES FEW OR NO CLOUDS BELOW 12000 FEET WITH NO
SIGNIFICANT WEATHER AND/OR OBSTRUCTIONS TO VISIBILITY.

COZ001>005-013-030-031-200900-
...NORTHWEST COLORADO...

CITY           SKY/WX    TMP DP  RH WIND       PRES   REMARKS
CRAIG          CLOUDY    34  33  96 CALM      30.02F
HAYDEN         CLOUDY    32  28  86 CALM      30.02F VSB 1/2
MEEKER         CLOUDY    37  33  85 E6        30.01S
MOUNT WERNER   NOT AVBL
STEAMBOAT SPGS CLOUDY    30  29  96 CALM      30.02S VSB 3/4
WALDEN         CLOUDY    28  23  80 N3        30.01F
$$

COZ006>008-011-200900-
...WEST CENTRAL VALLEYS...

CITY           SKY/WX    TMP DP  RH WIND       PRES   REMARKS
GRAND JUNCTION MOCLDY    44  42  93 SE8       29.99F
MONTROSE       LGT RAIN  44  41  89 SE3       30.06F
EAGLE          CLOUDY    37  32  81 E7        30.03F
RIFLE          CLOUDY    45  37  73 CALM      30.01F
DELTA          CLOUDY    46  41  85 NE8       30.04S
NUCLA          CLOUDY    43  36  75 SE6       30.04F
$$

COZ017>023-064>068-200900-
...SOUTHWEST COLORADO...

CITY           SKY/WX    TMP DP  RH WIND       PRES   REMARKS
DURANGO        PTCLDY    37  22  54 CALM      30.01F
CORTEZ         CLEAR     32  26  78 SE3       30.00F
PAGOSA SPRINGS CLOUDY    37  21  53 CALM      30.04F
TELLURIDE      CLOUDY    35  31  85 CALM      30.12S
WOLF CREEK PAS CLOUDY    23  14  68 SW18      30.14F WCI   9
$$

COZ009-010-012-014-032>034-037-058>063-200900-
...CENTRAL COLORADO...

CITY           SKY/WX    TMP DP  RH WIND       PRES   REMARKS
ASPEN          CLOUDY    34  28  79 SW5       30.02F WCI  30
BUENA VISTA    PTCLDY    26  21  84 CALM      30.04F
COPPER MTN     CLOUDY    23  18  80 SW6G16    30.06F WCI  16
BERTHOUD PASS  CLOUDY    14   5  67 W18G25    30.05F WCI  -3
COTTONWOOD PAS PTCLDY    32  19  59 W6        30.05F WCI  26
GUNNISON       MOCLDY    34  28  80 CALM      30.08F
KREMMLING      CLOUDY    32  27  80 CALM      30.02F
LEADVILLE      LGT SNOW  25  22  88 CALM      30.03F FOG
MONARCH PASS   FOG       21  19  93 MISG      30.18F VSB<1/4
SALIDA         PTCLDY    33  28  81 SW3       30.11F
SUNLIGHT       LGT SNOW  30  28  93 CALM      30.11F
WILKERSON PASS CLOUDY    23  21  93 SW7       30.07F FOG     WCI  15
$$

COZ069>075-200900-
...SAN LUIS VALLEY/SANGRE DE CRISTO MOUNTAINS...

CITY           SKY/WX    TMP DP  RH WIND       PRES   REMARKS
ALAMOSA        MOCLDY    32  24  72 SE5       30.02F WCI  27
LA VETA PASS   FOG       23  21  93 MISG      30.07F VSB 1/4
SAGUACHE       CLOUDY    34  23  64 N9        30.03F WCI  26
$$

COZ035-036-038>040-200900-
...NORTHERN COLORADO FRONT RANGE...

CITY           SKY/WX    TMP DP  RH WIND       PRES   REMARKS
DENVER INTL AP CLOUDY    37  26  64 N3        30.04S
DMNS CITY PARK   N/A     38  25  58 N3        30.04F
AURORA         MOCLDY    33  25  70 NE3       30.05R
FRONT RANGE AP NOT AVBL
ERIE MUNI ARPT CLOUDY    38  32  77 NW5       30.05F
BOULDER MUN AP CLOUDY    37  30  75 NW5       30.05F
CENTENNIAL     MOCLDY    32  25  75 CALM      30.03S
BROOMFIELD     CLOUDY    39  28  65 N8        30.05F
FORT COLLINS   MOCLDY    37  27  65 NE5       30.07F
LONGMONT       CLOUDY    42  29  60 N3        30.07F
$$

COZ041-046-047-076>085-087-088-200900-
...PIKES PEAK/PALMER DIVIDE AND SOUTHERN FOOTHILLS...

CITY           SKY/WX    TMP DP  RH WIND       PRES   REMARKS
COLO. SPRINGS  CLOUDY    35  29  78 E7        30.04F WCI  29
A. F. ACADEMY  CLOUDY    34  27  76 S5        30.03F WCI  30
ELLICOTT       CLOUDY   N/A N/A N/A SW7       30.03F
FALCON         CLOUDY    33  26  75 SW3       30.04F
FORT CARSON    CLOUDY    37  31  81 SE5       30.03F
LIMON          PTCLDY    27  23  85 VRB3      30.04F
MONUMENT HILL  CLOUDY    30  25  80 SW3       30.03S
TRINIDAD       CLOUDY    41  29  62 S3        30.04F
$$

COZ042>045-048>051-090-091-200900-
...NORTHEAST COLORADO...

CITY           SKY/WX    TMP DP  RH WIND       PRES   REMARKS
GREELEY ARPT   MOCLDY    37  25  60 NE6       30.07F
AKRON          CLOUDY    31  24  75 W9        30.02F WCI  23
BURLINGTON     CLEAR     33  25  72 NW10      30.02S WCI  25
WRAY           CLEAR     32  26  78 NW7       30.01S WCI  26
STERLING       MOCLDY    34  28  80 N10       30.02S WCI  26
HOLYOKE        CLEAR     34  27  75 NW8       30.01S WCI  27
FORT MORGAN    CLOUDY    36  27  69 W7        30.06R
$$

COZ086-089-092>099-200900-
...SOUTHEAST COLORADO...

CITY           SKY/WX    TMP DP  RH WIND       PRES   REMARKS
PUEBLO         CLOUDY    43  32  65 NW6       30.05F
LA JUNTA       PTCLDY    44  31  60 CALM      30.05F
LAMAR          CLOUDY    43  31  62 W9        30.03F
SPRINGFIELD      N/A     39  33  79 CALM      30.05F
$$



USA.gov is the U.S. government's official web portal to all federal, state and local government web resources and services.